When you browse on this site, cookies collect data to enhance your experience and personalize the content and advertising you see.
Visit our Privacy Policy to learn more. By continuing to use the site, you agree to this use of cookies and data.
  • In Latvia
  • List of Countries
  • For 7 days
  • Water Temperature
  • Satellite Maps
  • Weather Map
  • Weather Widgets
  • user-avatar
    Login

    Hourly Weather Melbourne

    Today, 24 May, Friday

    Time Temperature Precipitation Wind Pressure Humidity
    00:00 +17°C° 0 mm 7 mps 763 mmHg 42%
    01:00 +17°C° 0 mm 7 mps 763 mmHg 42%
    02:00 +17°C° 0 mm 6 mps 763 mmHg 43%
    03:00 +16°C° 0 mm 6 mps 763 mmHg 45%
    04:00 +16°C° 0 mm 6 mps 762 mmHg 46%
    05:00 +16°C° 0 mm 6 mps 762 mmHg 48%
    06:00 +15°C° 0 mm 6 mps 762 mmHg 49%
    07:00 +15°C° 0 mm 6 mps 762 mmHg 51%
    08:00 +15°C° 0.1 mm 6 mps 762 mmHg 54%
    09:00 +15°C° 0.1 mm 6 mps 762 mmHg 56%
    10:00 +14°C° 0.1 mm 6 mps 762 mmHg 59%
    11:00 +14°C° 0.6 mm 6 mps 762 mmHg 64%
    12:00 +14°C° 0.6 mm 6 mps 761 mmHg 70%
    13:00 +14°C° 0.6 mm 6 mps 761 mmHg 75%
    14:00 +15°C° 0.4 mm 6 mps 760 mmHg 74%
    15:00 +16°C° 0.4 mm 6 mps 760 mmHg 73%
    16:00 +16°C° 0.4 mm 6 mps 759 mmHg 72%
    17:00 +16°C° 0 mm 6 mps 759 mmHg 73%
    18:00 +16°C° 0 mm 6 mps 759 mmHg 73%
    19:00 +16°C° 0 mm 6 mps 759 mmHg 74%
    20:00 +16°C° 0.1 mm 6 mps 759 mmHg 74%
    21:00 +16°C° 0.1 mm 5 mps 760 mmHg 75%
    22:00 +17°C° 0.1 mm 4 mps 760 mmHg 75%
    23:00 +15°C° 0 mm 4 mps 760 mmHg 78%

    Tomorrow, 25 May, Saturday

    Time Temperature Precipitation Wind Pressure Humidity
    00:00 +14°C° 0 mm 3 mps 760 mmHg 82%
    01:00 +15°C° 0 mm 2 mps 759 mmHg 85%
    02:00 +13°C° 0 mm 3 mps 759 mmHg 84%
    03:00 +13°C° 0 mm 3 mps 759 mmHg 84%
    04:00 +12°C° 0 mm 3 mps 759 mmHg 83%
    05:00 +12°C° 0 mm 3 mps 759 mmHg 81%
    06:00 +12°C° 0 mm 4 mps 759 mmHg 78%
    07:00 +12°C° 0 mm 4 mps 759 mmHg 76%
    08:00 +13°C° 0 mm 4 mps 759 mmHg 73%
    09:00 +14°C° 0 mm 4 mps 759 mmHg 70%
    10:00 +15°C° 0 mm 5 mps 759 mmHg 66%
    11:00 +16°C° 0 mm 5 mps 758 mmHg 63%
    12:00 +17°C° 0 mm 5 mps 758 mmHg 60%
    13:00 +19°C° 0 mm 6 mps 757 mmHg 56%
    14:00 +17°C° 0.4 mm 6 mps 757 mmHg 60%
    15:00 +17°C° 0.4 mm 5 mps 757 mmHg 63%
    16:00 +16°C° 0.4 mm 5 mps 757 mmHg 67%
    17:00 +15°C° 0.7 mm 5 mps 757 mmHg 71%
    18:00 +14°C° 0.7 mm 4 mps 757 mmHg 75%
    19:00 +14°C° 0.7 mm 4 mps 758 mmHg 79%
    20:00 +13°C° 0.1 mm 4 mps 758 mmHg 79%
    21:00 +12°C° 0.1 mm 4 mps 758 mmHg 80%
    22:00 +12°C° 0.1 mm 4 mps 758 mmHg 80%
    23:00 +11°C° 0 mm 4 mps 758 mmHg 79%

    Day after tomorrow, 26 May, Sunday

    Time Temperature Precipitation Wind Pressure Humidity
    00:00 +11°C° 0 mm 4 mps 759 mmHg 78%
    01:00 +10°C° 0 mm 4 mps 759 mmHg 77%
    02:00 +10°C° 0 mm 4 mps 759 mmHg 78%
    03:00 +10°C° 0 mm 4 mps 759 mmHg 78%
    04:00 +8°C° 0 mm 4 mps 759 mmHg 79%
    05:00 +8°C° 0 mm 4 mps 759 mmHg 79%
    06:00 +8°C° 0 mm 4 mps 759 mmHg 79%
    07:00 +7°C° 0 mm 4 mps 760 mmHg 79%
    08:00 +10°C° 0 mm 4 mps 760 mmHg 73%
    09:00 +10°C° 0 mm 5 mps 760 mmHg 68%
    10:00 +12°C° 0 mm 5 mps 760 mmHg 62%
    11:00 +13°C° 0 mm 6 mps 759 mmHg 57%
    12:00 +14°C° 0 mm 6 mps 758 mmHg 51%
    13:00 +15°C° 0 mm 6 mps 758 mmHg 46%
    14:00 +15°C° 0 mm 7 mps 757 mmHg 49%
    15:00 +14°C° 0 mm 7 mps 757 mmHg 52%
    16:00 +14°C° 0 mm 7 mps 757 mmHg 55%
    17:00 +12°C° 0.6 mm 7 mps 757 mmHg 61%
    18:00 +12°C° 0.6 mm 8 mps 757 mmHg 67%
    19:00 +11°C° 0.6 mm 8 mps 757 mmHg 73%
    20:00 +10°C° 0.2 mm 7 mps 758 mmHg 72%
    21:00 +10°C° 0.2 mm 7 mps 758 mmHg 71%
    22:00 +9°C° 0.2 mm 7 mps 759 mmHg 70%
    23:00 +9°C° 0 mm 6 mps 759 mmHg 70%

    27 May, Monday

    Time Temperature Precipitation Wind Pressure Humidity
    00:00 +8°C° 0 mm 6 mps 759 mmHg 70%
    01:00 +8°C° 0 mm 6 mps 760 mmHg 70%
    02:00 +8°C° 0 mm 6 mps 760 mmHg 71%
    03:00 +8°C° 0 mm 5 mps 760 mmHg 71%
    04:00 +7°C° 0 mm 5 mps 760 mmHg 72%
    05:00 +7°C° 0.1 mm 5 mps 760 mmHg 73%
    06:00 +7°C° 0.1 mm 5 mps 760 mmHg 74%
    07:00 +7°C° 0.1 mm 5 mps 761 mmHg 75%
    08:00 +8°C° 0.1 mm 5 mps 761 mmHg 71%
    09:00 +9°C° 0.1 mm 5 mps 762 mmHg 67%
    10:00 +10°C° 0.1 mm 5 mps 762 mmHg 64%
    11:00 +10°C° 0 mm 6 mps 762 mmHg 62%
    12:00 +11°C° 0 mm 6 mps 762 mmHg 60%
    13:00 +11°C° 0 mm 6 mps 761 mmHg 59%
    14:00 +12°C° 0 mm 5 mps 761 mmHg 61%
    15:00 +12°C° 0 mm 5 mps 761 mmHg 62%
    16:00 +12°C° 0 mm 5 mps 761 mmHg 64%
    17:00 +12°C° 0 mm 4 mps 761 mmHg 66%
    18:00 +11°C° 0 mm 4 mps 761 mmHg 67%
    19:00 +11°C° 0 mm 4 mps 761 mmHg 69%
    20:00 +11°C° 0 mm 4 mps 761 mmHg 70%
    21:00 +9°C° 0 mm 5 mps 761 mmHg 71%
    22:00 +9°C° 0 mm 5 mps 761 mmHg 72%
    23:00 +9°C° 0 mm 5 mps 760 mmHg 72%

    28 May, Tuesday

    Time Temperature Precipitation Wind Pressure Humidity
    00:00 +9°C° 0 mm 5 mps 759 mmHg 73%
    01:00 +9°C° 0 mm 5 mps 759 mmHg 74%
    02:00 +10°C° 0 mm 5 mps 758 mmHg 73%
    03:00 +10°C° 0 mm 5 mps 758 mmHg 72%
    04:00 +11°C° 0 mm 6 mps 757 mmHg 71%
    05:00 +11°C° 0 mm 6 mps 757 mmHg 71%
    06:00 +11°C° 0 mm 6 mps 757 mmHg 70%
    07:00 +11°C° 0 mm 6 mps 757 mmHg 70%
    08:00 +13°C° 0 mm 6 mps 757 mmHg 68%
    09:00 +14°C° 0 mm 7 mps 756 mmHg 66%
    10:00 +14°C° 0 mm 7 mps 756 mmHg 63%
    11:00 +14°C° 0.1 mm 7 mps 756 mmHg 63%
    12:00 +14°C° 0.1 mm 7 mps 755 mmHg 62%
    13:00 +14°C° 0.1 mm 7 mps 755 mmHg 61%
    14:00 +14°C° 0.1 mm 7 mps 755 mmHg 62%
    15:00 +14°C° 0.1 mm 7 mps 754 mmHg 63%
    16:00 +12°C° 0.1 mm 7 mps 754 mmHg 64%
    17:00 +12°C° 0.2 mm 7 mps 755 mmHg 64%
    18:00 +11°C° 0.2 mm 7 mps 755 mmHg 64%
    19:00 +10°C° 0.2 mm 7 mps 755 mmHg 64%
    20:00 +10°C° 0.4 mm 7 mps 755 mmHg 66%
    21:00 +9°C° 0.4 mm 7 mps 756 mmHg 67%
    22:00 +8°C° 0.4 mm 7 mps 756 mmHg 68%
    23:00 +8°C° 0.3 mm 7 mps 756 mmHg 68%

    29 May, Wednesday

    Time Temperature Precipitation Wind Pressure Humidity
    00:00 +6°C° 0.3 mm 7 mps 756 mmHg 68%
    01:00 +6°C° 0.3 mm 7 mps 755 mmHg 68%
    02:00 +6°C° 0.1 mm 7 mps 755 mmHg 68%
    03:00 +5°C° 0.1 mm 7 mps 755 mmHg 68%
    04:00 +5°C° 0.1 mm 7 mps 755 mmHg 68%
    05:00 +5°C° 0.3 mm 7 mps 756 mmHg 69%
    06:00 +5°C° 0.3 mm 7 mps 756 mmHg 70%
    07:00 +5°C° 0.3 mm 7 mps 756 mmHg 71%
    08:00 +6°C° 0.4 mm 8 mps 757 mmHg 67%
    09:00 +6°C° 0.4 mm 8 mps 757 mmHg 63%
    10:00 +6°C° 0.4 mm 8 mps 757 mmHg 60%
    11:00 +7°C° 0.2 mm 8 mps 757 mmHg 55%
    12:00 +7°C° 0.2 mm 8 mps 758 mmHg 51%
    13:00 +9°C° 0.2 mm 7 mps 758 mmHg 47%
    14:00 +9°C° 0.2 mm 7 mps 758 mmHg 49%
    15:00 +8°C° 0.2 mm 7 mps 758 mmHg 51%
    16:00 +8°C° 0.2 mm 7 mps 758 mmHg 53%
    17:00 +8°C° 0.2 mm 7 mps 759 mmHg 57%
    18:00 +6°C° 0.2 mm 7 mps 760 mmHg 61%
    19:00 +7°C° 0.2 mm 6 mps 760 mmHg 66%
    20:00 +7°C° 0.1 mm 6 mps 761 mmHg 66%
    21:00 +5°C° 0.1 mm 6 mps 762 mmHg 66%
    22:00 +5°C° 0.1 mm 6 mps 762 mmHg 67%
    23:00 +7°C° 0.1 mm 6 mps 763 mmHg 67%
    Show more